Date,TemperatureHighF,TemperatureAvgF,TemperatureLowF,DewpointHighF,DewpointAvgF,DewpointLowF,HumidityHigh,HumidityAvg,HumidityLow,PressureMaxIn,PressureMinIn,WindSpeedMaxMPH,WindSpeedAvgMPH,GustSpeedMaxMPH,PrecipitationSumIn
2013-1-1,56.7,45.8,36.0,43.1,38.0,33.9,98,76,46,30.19,30.06,11,0,11,0.00
2013-1-2,63.4,50.5,39.9,44.5,35.2,29.2,79,57,30,30.12,30.01,12,1,12,0.00
2013-1-3,63.1,44.9,34.4,48.9,38.5,30.8,100,80,35,30.14,30.03,5,0,5,0.00
2013-1-4,60.7,44.9,35.3,47.7,40.3,35.3,100,87,45,30.19,30.11,6,0,6,0.00
2013-1-5,55.7,45.8,35.3,52.3,44.5,35.3,100,95,77,30.23,30.07,7,0,7,0.39
2013-1-6,55.0,48.2,43.5,49.4,45.6,40.0,100,91,77,30.09,30.00,10,0,10,0.26
2013-1-7,55.6,46.2,37.0,49.6,43.4,37.0,100,91,69,30.17,30.05,7,0,7,0.00
2013-1-8,61.8,49.6,39.8,53.8,46.4,39.6,100,89,64,30.09,30.00,6,0,6,0.00
2013-1-9,57.5,49.3,41.9,53.0,46.5,39.5,98,90,69,30.04,29.95,13,0,13,0.00
2013-1-10,51.9,44.1,36.0,41.9,37.0,30.7,96,77,61,30.11,29.98,15,1,15,0.00
2013-1-11,53.3,40.9,28.8,43.0,35.9,28.3,100,84,50,30.18,30.05,11,0,11,0.00
2013-1-12,51.9,42.6,35.3,39.6,35.6,29.5,96,77,54,30.16,30.05,7,0,7,0.00
2013-1-13,51.9,41.5,33.7,37.3,30.1,23.9,89,65,36,30.16,30.05,6,0,6,0.00
2013-1-14,52.8,40.5,31.8,34.6,27.5,23.4,82,61,34,30.32,30.13,11,1,11,0.00
2013-1-15,49.5,38.8,32.2,40.7,32.7,24.9,98,79,54,30.35,30.32,5,0,5,0.00
2013-1-16,61.2,43.3,31.0,45.3,36.9,31.0,100,81,38,30.33,30.11,6,0,6,0.00
2013-1-17,70.3,47.4,35.9,52.9,38.3,33.0,91,73,31,30.13,30.02,5,0,5,0.00
2013-1-18,72.8,51.9,36.2,49.7,37.2,29.6,96,61,26,30.09,30.01,5,0,5,0.00
2013-1-19,74.2,56.2,47.3,43.5,34.3,26.7,69,45,19,30.11,30.03,9,1,10,0.00
2013-1-20,73.3,58.7,50.5,47.0,32.4,26.5,60,38,20,30.08,29.98,13,1,13,0.00
2013-1-21,72.0,60.5,48.8,47.2,33.0,22.1,63,37,22,30.05,29.95,12,1,12,0.00
2013-1-22,76.0,55.1,41.6,40.7,33.3,23.3,73,46,20,30.00,29.95,5,0,5,0.00
2013-1-23,68.9,53.2,46.1,50.9,42.3,32.1,94,68,31,30.01,29.89,8,0,8,0.00
2013-1-24,62.7,56.0,51.3,60.7,55.2,48.5,100,97,81,30.08,29.95,11,0,11,0.57
2013-1-25,69.1,58.9,53.1,58.7,55.5,52.0,100,89,64,30.07,29.93,10,0,10,0.02
2013-1-26,59.3,52.0,46.8,58.7,50.1,45.8,100,93,79,29.97,29.89,12,0,12,0.01
2013-1-27,56.2,47.2,38.3,46.0,41.9,35.2,98,82,61,30.08,29.97,13,0,13,0.00
2013-1-28,55.9,44.7,32.7,47.9,40.8,32.5,100,87,60,30.20,30.07,11,1,11,0.00
2013-1-29,55.3,45.4,35.5,47.3,42.2,35.5,100,89,72,30.24,30.15,7,0,7,0.00
2013-1-30,68.8,50.2,40.5,51.3,43.9,38.7,100,81,46,30.27,30.17,7,0,9,0.00
2013-1-31,63.7,48.5,36.8,53.0,43.6,36.6,100,85,53,30.19,30.08,5,0,5,0.00
2013-2-1,61.0,47.4,38.2,54.0,46.2,38.2,100,96,70,30.14,30.06,9,0,9,0.00
2013-2-2,59.9,50.4,43.3,53.8,49.2,43.3,100,96,79,30.18,30.10,5,0,5,0.01
2013-2-3,59.9,48.2,41.2,54.8,46.7,41.1,100,95,77,30.14,30.04,10,0,10,0.00
2013-2-4,61.2,48.5,36.6,54.2,46.7,36.6,100,94,72,30.06,29.95,7,0,7,0.01
2013-2-5,54.5,48.5,41.8,51.1,47.4,41.8,100,96,83,30.04,29.97,7,0,7,0.00
2013-2-6,57.2,47.4,39.8,48.7,44.1,38.2,100,89,67,30.09,30.02,10,0,10,0.01
2013-2-7,56.9,45.9,35.2,49.6,43.2,35.2,100,91,64,30.09,29.96,10,0,10,0.00
2013-2-8,51.6,43.0,35.0,45.9,41.8,35.0,100,96,77,29.96,29.85,12,0,12,0.21
2013-2-9,55.0,41.8,30.7,46.5,38.9,30.7,100,91,58,30.04,29.93,13,0,13,0.00
2013-2-10,53.9,42.5,31.0,47.9,40.4,31.0,100,93,70,30.05,29.95,9,0,9,0.01
2013-2-11,58.7,43.9,32.5,48.4,41.2,32.5,100,92,54,30.19,30.00,9,0,9,0.00
2013-2-12,58.3,44.6,33.5,50.9,42.8,33.5,100,94,72,30.28,30.19,8,0,8,0.00
2013-2-13,61.2,46.6,35.0,50.2,43.3,35.0,100,90,58,30.24,30.12,10,0,10,0.01
2013-2-14,69.6,54.0,40.2,51.8,44.7,38.0,100,73,32,30.14,30.03,13,1,13,0.00
2013-2-15,79.6,62.8,53.2,47.2,40.4,34.6,65,45,21,30.14,30.07,13,1,13,0.00
2013-2-16,77.0,60.3,41.9,49.4,39.9,31.8,79,48,28,30.10,29.95,7,0,7,0.00
2013-2-17,60.4,46.6,35.3,50.8,42.9,33.9,100,87,70,29.96,29.90,12,0,12,0.00
2013-2-18,51.3,48.0,44.1,50.5,46.0,42.8,100,93,83,30.00,29.91,5,0,5,0.00
2013-2-19,50.8,44.5,35.6,47.7,42.1,33.8,100,92,72,29.92,29.70,12,0,12,0.22
2013-2-20,56.2,43.6,31.3,47.0,39.5,31.3,100,87,58,30.00,29.75,14,1,14,0.01
2013-2-21,57.3,44.6,31.3,46.3,40.4,31.3,100,87,55,30.10,29.97,14,0,14,0.00
2013-2-22,59.9,46.3,34.6,49.4,42.0,34.5,100,86,54,30.17,30.09,7,0,7,0.00
2013-2-23,57.6,47.4,36.9,49.4,42.5,32.9,100,84,58,30.16,30.00,14,1,14,0.00
2013-2-24,62.0,50.0,37.6,45.0,31.3,25.1,76,50,27,30.18,30.04,10,1,10,0.00
2013-2-25,60.7,46.0,32.4,47.8,40.1,30.3,100,82,49,30.19,30.06,10,0,10,0.00
2013-2-26,63.5,49.5,37.9,49.3,39.6,28.7,100,73,28,30.11,30.00,10,1,10,0.00
2013-2-27,67.3,48.4,34.7,50.4,41.4,33.1,100,80,31,30.26,30.11,11,0,11,0.00
2013-2-28,71.5,51.8,36.0,52.9,45.1,36.0,100,81,35,30.33,30.25,10,0,10,0.00
2013-3-1,74.9,61.1,50.8,52.9,48.6,44.8,87,65,41,30.31,30.12,6,0,6,0.00
2013-3-2,74.0,58.8,48.3,55.3,49.1,40.4,100,73,34,30.13,30.00,10,0,10,0.00
2013-3-3,59.3,53.0,48.5,54.8,51.1,48.5,100,94,77,30.03,29.96,10,1,10,0.00
2013-3-4,57.8,50.2,44.8,50.3,48.2,44.5,100,93,74,30.07,29.98,12,1,12,0.00
2013-3-5,55.9,50.4,47.7,48.5,45.5,43.0,99,84,67,30.05,29.97,10,1,10,0.00
2013-3-6,55.0,49.1,42.2,53.5,48.1,41.9,100,97,81,30.04,29.94,14,1,14,0.41
2013-3-7,56.6,47.8,40.9,50.2,45.1,40.9,100,91,68,29.95,29.76,6,0,6,0.21
2013-3-8,54.5,47.8,43.8,49.9,45.6,41.1,100,92,81,30.03,29.72,22,1,22,0.06
2013-3-9,58.1,47.9,36.6,50.2,44.0,36.4,100,87,58,30.23,30.03,11,0,11,0.00
2013-3-10,60.4,48.6,38.2,52.8,46.3,38.2,100,92,71,30.27,30.17,10,0,10,0.00
2013-3-11,66.0,49.4,36.5,54.2,45.0,36.5,100,87,52,30.17,30.02,7,0,7,0.01
2013-3-12,65.0,50.3,37.6,55.4,47.5,37.6,100,91,61,30.05,29.98,8,0,8,0.00
2013-3-13,75.4,52.1,41.3,58.2,48.6,41.3,100,90,42,30.06,30.00,11,0,11,0.00
2013-3-14,65.5,50.1,42.6,57.4,48.9,42.6,100,96,71,30.07,29.99,11,0,11,0.01
2013-3-15,73.0,54.8,45.7,57.2,50.9,45.7,100,88,50,30.00,29.91,7,0,7,0.00
2013-3-16,67.8,52.2,45.4,57.3,49.8,45.3,100,92,66,29.99,29.92,10,0,10,0.01
2013-3-17,68.3,52.7,44.1,53.8,48.2,43.9,100,86,53,30.00,29.94,11,1,11,0.00
2013-3-18,69.3,50.6,36.5,52.0,45.7,36.5,100,86,45,30.03,29.93,7,0,7,0.00
2013-3-19,73.2,55.4,45.1,53.5,49.1,41.6,100,82,35,30.06,29.97,13,1,13,0.01
2013-3-20,67.1,54.9,47.3,52.9,49.0,40.6,100,82,49,30.05,29.98,11,0,11,0.01
2013-3-21,59.9,50.1,40.9,53.5,46.9,40.9,100,90,70,30.00,29.88,12,1,12,0.00
2013-3-22,66.9,51.6,39.9,49.6,43.5,27.2,100,77,34,29.95,29.88,10,1,10,0.01
2013-3-23,70.4,55.4,41.1,47.4,37.7,25.1,98,56,23,30.01,29.93,11,1,11,0.00
2013-3-24,66.8,50.0,36.8,50.0,44.2,36.6,100,84,39,29.99,29.88,10,0,10,0.00
2013-3-25,68.9,48.4,36.9,54.6,45.4,36.9,100,91,56,29.92,29.86,6,0,9,0.00
2013-3-26,59.9,50.0,43.6,50.6,47.3,43.6,100,91,69,29.94,29.88,11,0,11,0.00
2013-3-27,61.3,51.8,42.6,54.4,50.0,42.6,100,94,75,29.99,29.88,11,0,11,0.00
2013-3-28,64.3,54.9,47.7,55.8,52.8,47.7,100,93,73,30.02,29.95,9,0,9,0.00
2013-3-29,63.4,52.5,42.6,55.2,50.2,42.6,100,93,73,30.04,29.97,10,1,10,0.00
2013-3-30,65.8,55.5,50.1,55.3,52.6,50.1,100,91,66,30.05,29.97,9,1,9,0.31
2013-3-31,65.5,56.6,52.5,58.6,54.7,52.5,100,94,69,30.04,29.99,11,0,11,0.02
2013-4-1,62.3,55.3,47.6,59.8,54.1,47.6,100,96,80,30.09,30.01,9,0,9,0.02
2013-4-2,61.5,51.9,41.5,55.1,50.0,41.5,100,94,79,30.09,29.99,12,0,12,0.00
2013-4-3,72.1,54.8,48.2,57.6,52.0,48.2,100,92,52,30.03,29.95,11,1,11,0.00
2013-4-4,65.5,55.5,49.6,56.9,53.2,49.6,100,92,71,30.06,29.98,10,1,10,0.02
2013-4-5,62.6,55.1,49.6,57.5,53.4,49.6,100,94,77,30.10,30.02,14,1,14,0.01
2013-4-6,66.1,53.3,42.8,55.6,50.8,42.8,100,92,62,30.12,30.02,17,1,17,0.00
2013-4-7,63.2,53.2,43.6,56.5,50.5,43.6,100,91,73,30.06,29.85,15,1,15,0.01
2013-4-8,58.3,52.2,47.7,51.1,46.5,42.1,100,82,67,29.87,29.76,15,2,16,0.01
2013-4-9,68.3,55.3,47.3,50.3,45.7,33.9,98,73,30,29.97,29.86,10,1,10,0.00
2013-4-10,75.3,55.7,40.5,52.3,43.7,35.5,94,69,25,30.07,29.95,7,0,7,0.00
2013-4-11,60.4,50.7,41.8,52.3,47.6,41.8,100,90,72,29.98,29.76,14,1,14,0.00
2013-4-12,63.1,50.0,40.3,53.5,47.3,40.3,100,91,70,29.83,29.74,15,1,15,0.00
2013-4-13,61.5,49.7,42.6,53.2,47.5,42.6,100,93,72,29.86,29.76,9,0,9,0.00
2013-4-14,63.2,50.0,40.2,51.5,45.7,40.2,100,86,62,29.83,29.74,13,0,13,0.00
2013-4-15,56.7,48.1,40.9,50.5,43.4,37.8,100,85,66,29.90,29.80,17,1,17,0.00
2013-4-16,58.0,47.1,31.9,46.5,40.1,31.1,99,78,55,30.01,29.90,16,1,16,0.00
2013-4-17,64.7,52.8,40.6,45.8,40.9,31.6,93,66,33,30.12,30.01,22,1,22,0.00
2013-4-18,71.5,54.0,38.8,48.0,39.8,28.9,99,64,24,30.17,30.12,10,0,10,0.00
2013-4-19,75.3,53.5,38.6,52.5,45.3,38.6,100,79,32,30.15,29.97,13,1,13,0.00
2013-4-20,79.4,55.4,41.9,57.0,48.4,41.9,100,81,41,29.99,29.89,14,0,14,0.00
2013-4-21,77.2,58.7,42.2,56.7,48.1,42.1,100,73,38,29.92,29.86,9,0,9,0.00
2013-4-22,62.3,52.4,44.5,55.3,50.3,44.5,100,93,77,29.93,29.83,11,0,11,0.00
2013-4-23,61.8,53.8,49.6,55.3,51.6,49.6,100,93,75,29.91,29.81,11,0,11,0.01
2013-4-24,58.6,54.2,50.2,55.3,51.8,50.2,100,92,75,29.92,29.80,7,0,7,0.01
2013-4-25,65.5,55.6,45.5,52.8,50.2,45.5,100,84,62,30.05,29.90,10,0,10,0.00
2013-4-26,63.4,52.6,42.2,54.6,49.6,42.2,100,90,71,30.12,30.04,12,1,12,0.00
2013-4-27,60.9,53.1,48.0,55.0,50.9,48.0,100,93,76,30.13,29.99,17,1,17,0.00
2013-4-28,62.3,52.9,47.4,56.7,50.3,47.2,100,92,71,30.00,29.82,9,0,9,0.00
2013-4-29,70.3,52.8,43.6,58.2,50.3,43.6,100,92,64,29.83,29.72,10,1,10,0.00
2013-4-30,58.0,52.8,49.6,54.8,51.5,48.7,100,96,83,29.81,29.73,10,0,10,0.01
2013-5-1,66.9,57.2,51.0,56.5,53.0,49.9,100,87,67,30.00,29.81,11,1,11,0.01
2013-5-2,76.8,60.1,45.1,59.5,52.1,45.1,100,78,45,30.06,29.99,10,0,10,0.00
2013-5-3,87.0,63.2,46.7,60.1,48.3,39.0,100,66,22,30.01,29.73,11,1,11,0.00
2013-5-4,62.0,53.8,47.9,54.3,51.3,47.1,100,92,73,29.73,29.66,9,1,9,0.00
2013-5-5,58.4,55.7,52.6,55.4,53.9,52.2,100,94,85,29.78,29.67,13,2,13,0.02
2013-5-6,63.7,58.1,54.5,58.2,55.7,53.3,100,92,77,29.92,29.77,12,1,12,0.03
2013-5-7,68.8,58.8,51.3,58.3,55.1,51.3,100,89,63,30.00,29.90,10,0,10,0.05
2013-5-8,61.6,56.0,50.2,55.1,53.2,49.3,100,91,78,30.05,29.99,13,1,13,0.00
2013-5-9,62.6,54.7,49.6,54.6,52.1,49.4,100,91,74,30.08,30.01,14,1,14,0.00
2013-5-10,70.8,55.8,47.7,57.8,52.6,47.7,100,90,60,30.08,30.00,13,0,13,0.00
2013-5-11,76.3,58.3,49.4,61.0,53.7,49.4,100,87,51,30.04,29.97,13,0,13,0.00
2013-5-12,81.6,60.2,49.2,59.8,53.7,49.2,100,82,38,30.03,29.90,11,1,11,0.00
2013-5-13,66.0,55.9,49.9,58.0,53.3,49.9,100,92,71,30.00,29.92,10,1,10,0.00
2013-5-14,62.4,55.1,51.4,54.3,52.5,50.6,100,91,73,29.97,29.91,16,1,16,0.00
2013-5-15,63.9,57.4,48.5,53.4,51.6,48.2,100,82,67,30.00,29.92,12,1,13,0.00
2013-5-16,69.1,54.4,46.1,56.2,51.4,46.1,100,91,56,29.95,29.87,21,0,21,0.00
2013-5-17,66.0,54.5,46.4,57.0,50.4,46.4,100,87,65,29.98,29.88,15,1,15,0.00
2013-5-18,65.5,54.4,42.8,53.0,49.2,42.8,100,84,58,30.04,29.97,14,1,14,0.00
2013-5-19,69.4,55.1,43.1,55.7,49.8,43.1,100,84,57,30.00,29.86,11,1,11,0.00
2013-5-20,82.4,60.0,44.8,55.4,49.3,41.3,100,73,25,29.90,29.81,10,1,10,0.00
2013-5-21,66.9,55.2,44.8,55.4,49.7,43.2,100,83,62,29.88,29.81,16,1,16,0.00
2013-5-22,61.8,50.7,38.9,48.9,44.5,38.9,100,81,60,29.87,29.80,19,1,19,0.00
2013-5-23,59.3,49.9,37.0,47.9,43.8,36.2,99,81,55,29.92,29.84,21,1,21,0.00
2013-5-24,65.3,51.1,37.6,51.6,46.1,37.6,100,85,55,29.94,29.88,13,1,13,0.00
2013-5-25,61.8,50.7,38.2,50.8,46.7,38.2,100,87,66,29.99,29.92,12,1,12,0.00
2013-5-26,65.0,53.2,42.3,54.7,50.2,42.3,100,90,69,30.03,29.97,14,1,14,0.00
2013-5-27,69.3,56.5,48.3,55.7,52.0,48.3,100,86,58,30.03,29.92,15,1,15,0.00
2013-5-28,67.9,57.7,49.2,58.8,54.3,48.9,100,89,72,29.94,29.78,15,1,15,0.00
2013-5-29,70.6,55.8,47.0,56.4,51.4,47.0,100,86,54,29.85,29.76,16,1,16,0.00
2013-5-30,66.3,54.8,43.8,52.7,49.2,43.8,100,83,59,29.87,29.81,13,1,13,0.00
2013-5-31,76.1,56.9,41.9,54.0,48.4,41.9,100,77,38,29.89,29.79,9,0,9,0.00
2013-6-1,83.4,60.4,47.1,58.0,50.7,46.0,97,74,31,29.83,29.67,12,1,12,0.00
2013-6-2,68.1,56.5,47.4,57.1,52.6,46.8,100,88,67,29.75,29.68,10,1,10,0.00
2013-6-3,67.8,57.5,51.9,56.8,54.1,51.4,100,89,67,29.82,29.71,10,0,10,0.00
2013-6-4,67.4,57.1,49.8,57.9,53.8,49.8,100,89,70,29.90,29.80,9,0,9,0.01
2013-6-5,63.1,56.2,49.8,55.9,53.0,49.6,100,89,75,29.93,29.89,14,1,14,0.00
2013-6-6,63.1,56.1,52.8,55.2,53.5,52.2,100,91,75,29.90,29.84,11,1,11,0.00
2013-6-7,64.3,56.5,52.0,56.5,53.9,52.0,100,91,75,29.85,29.72,9,0,9,0.00
2013-6-8,65.5,57.3,51.6,58.5,55.1,51.6,100,93,76,29.82,29.70,10,1,10,0.00
2013-6-9,64.7,59.5,56.3,58.9,56.6,55.0,100,90,80,29.85,29.78,11,0,11,0.01
2013-6-10,70.1,62.2,55.0,58.1,55.4,53.3,95,79,62,29.90,29.81,11,1,11,0.00
2013-6-11,66.0,58.5,51.1,58.3,55.6,51.1,100,91,74,29.90,29.83,12,1,12,0.00
2013-6-12,65.2,56.4,50.1,59.2,54.0,50.1,100,92,74,29.95,29.85,9,0,9,0.00
2013-6-13,66.9,55.8,46.1,57.0,51.2,46.1,100,86,62,29.98,29.87,12,0,12,0.01
2013-6-14,79.0,58.6,43.1,54.1,49.9,43.1,100,78,30,29.87,29.76,12,1,12,0.01
2013-6-15,61.2,54.5,51.4,53.6,52.1,50.5,100,92,73,29.94,29.79,11,0,11,0.00
2013-6-16,69.8,59.8,51.6,55.4,52.8,50.2,98,79,60,29.98,29.90,9,0,9,0.00
2013-6-17,66.8,57.1,46.7,56.3,52.5,46.7,100,85,65,29.98,29.89,12,1,12,0.00
2013-6-18,66.0,55.6,48.2,55.9,51.8,48.2,100,88,67,29.93,29.84,14,1,14,0.00
2013-6-19,68.4,56.8,45.5,53.8,49.0,44.5,100,77,50,29.92,29.84,16,1,16,0.00
2013-6-20,72.7,57.2,46.1,53.1,48.5,43.6,92,75,37,29.87,29.82,15,1,15,0.00
2013-6-21,70.3,56.5,44.2,53.9,49.9,43.4,99,80,54,29.88,29.81,11,1,11,0.00
2013-6-22,70.8,56.8,43.9,55.5,50.7,43.9,100,82,55,29.85,29.74,11,0,11,0.00
2013-6-23,62.9,55.2,47.3,57.7,53.3,47.3,100,94,80,29.83,29.77,11,1,11,0.00
2013-6-25,66.9,61.1,56.9,62.1,60.1,56.9,100,97,84,29.91,29.87,7,0,7,0.01
2013-6-26,74.6,64.0,55.6,64.0,59.9,55.6,100,88,67,29.94,29.87,15,1,15,0.00
2013-6-27,85.3,67.3,56.2,64.7,58.9,55.6,100,77,47,29.94,29.90,12,1,12,0.00
2013-6-28,85.5,65.7,55.3,62.1,56.9,53.6,96,76,43,29.93,29.80,10,0,10,0.00
2013-6-29,93.2,68.5,54.8,61.5,55.7,53.1,97,69,27,29.82,29.69,11,1,11,0.00
2013-6-30,81.1,65.4,54.7,60.1,55.6,52.7,94,73,46,29.73,29.63,10,0,10,0.00
2013-7-1,78.5,66.4,55.4,66.0,59.3,53.3,95,79,62,29.81,29.69,0,0,0,0.00
2013-7-2,88.4,67.2,54.8,63.0,58.9,54.1,98,77,40,29.91,29.77,11,0,11,0.00
2013-7-3,72.7,59.7,51.9,59.6,55.7,51.9,100,88,63,29.87,29.74,11,0,11,0.00
2013-7-4,75.3,60.7,52.0,60.8,56.6,52.0,100,88,60,29.75,29.71,10,0,10,0.00
2013-7-5,69.1,59.2,52.9,59.1,56.0,52.1,100,90,68,29.76,29.72,11,1,11,0.00
2013-7-6,65.5,57.4,52.6,57.0,54.8,52.5,100,92,71,29.78,29.73,11,1,12,0.00
2013-7-7,66.8,57.8,52.6,56.5,54.6,52.6,100,90,70,29.82,29.75,10,1,10,0.00
2013-7-8,66.0,58.6,53.6,56.9,55.0,53.3,100,88,70,29.92,29.82,11,1,11,0.00
2013-7-9,70.8,58.4,52.0,59.1,55.1,52.0,100,90,65,29.94,29.89,12,0,12,0.00
2013-7-10,65.5,57.2,52.5,58.9,55.1,52.5,100,93,73,29.94,29.86,13,1,13,0.00
2013-7-11,67.3,57.6,51.6,57.5,54.6,51.4,100,91,69,29.91,29.84,11,0,11,0.00
2013-7-12,64.8,56.0,51.1,57.6,53.8,51.1,100,93,75,29.89,29.83,10,1,10,0.00
2013-7-13,66.4,56.4,51.7,59.0,54.1,51.7,100,93,72,29.92,29.85,11,1,11,0.01
2013-7-14,67.4,57.5,51.1,57.0,54.2,51.1,100,90,67,29.92,29.86,14,1,14,0.00
2013-7-15,64.5,57.1,52.5,56.1,54.0,52.2,99,90,73,29.88,29.81,13,1,13,0.00
2013-7-16,65.8,58.7,54.7,56.3,54.6,52.5,100,87,70,29.95,29.84,12,1,12,0.00
2013-7-17,67.1,58.8,51.7,58.0,55.4,51.6,100,89,72,30.00,29.95,12,1,12,0.00
2013-7-18,65.2,56.5,51.3,58.0,54.1,51.3,100,92,72,29.98,29.86,6,1,12,0.00
2013-7-19,64.3,56.0,51.4,56.6,53.5,51.4,100,92,73,29.88,29.80,12,1,12,0.00
2013-7-20,65.2,56.5,51.6,56.3,53.7,51.6,100,91,72,29.83,29.75,10,0,10,0.00
2013-7-21,72.8,61.2,51.7,61.3,56.2,51.7,100,85,62,29.85,29.75,10,0,10,0.00
2013-7-22,74.6,63.8,58.7,62.5,59.8,56.9,100,88,65,29.91,29.79,11,1,11,0.01
2013-7-23,69.6,61.2,56.6,62.4,59.0,56.6,100,93,76,29.95,29.89,11,1,11,0.00
2013-7-24,65.5,58.4,54.5,59.8,56.3,54.5,100,93,74,29.93,29.87,13,1,13,0.00
2013-7-25,65.5,58.3,54.5,57.6,56.1,54.5,100,93,73,29.99,29.88,12,1,12,0.00
2013-7-26,64.5,57.6,54.4,57.4,55.9,54.4,100,94,78,30.04,29.96,13,1,13,0.00
2013-7-27,65.2,57.9,54.5,58.0,55.9,54.5,100,93,77,29.99,29.84,13,1,13,0.00
2013-7-28,65.2,58.4,54.5,58.3,56.0,54.5,100,92,76,29.86,29.81,10,0,10,0.00
2013-7-29,67.6,59.5,54.5,58.3,56.1,54.1,100,89,71,29.96,29.83,10,1,10,0.00
2013-7-30,66.1,59.4,55.1,57.9,55.8,53.4,98,88,74,30.06,29.96,14,1,14,0.00
2013-7-31,64.7,58.5,52.5,56.9,55.1,52.3,100,89,75,30.04,29.96,13,1,13,0.00
2013-8-1,70.3,58.2,47.0,58.2,54.1,47.0,100,88,64,29.98,29.86,16,1,16,0.00
2013-8-2,65.0,56.1,47.9,57.8,53.6,47.9,100,92,74,29.92,29.86,13,1,13,0.01
2013-8-3,63.9,56.9,52.9,55.9,54.2,52.9,100,91,73,29.95,29.89,12,1,12,0.01
2013-8-4,63.9,56.4,52.2,55.9,54.1,52.1,100,92,75,29.97,29.91,11,1,11,0.00
2013-8-5,63.2,56.4,52.0,56.5,54.3,52.0,100,93,78,29.95,29.89,11,1,12,0.00
2013-8-6,63.2,56.6,53.6,56.2,54.5,53.4,100,93,76,30.01,29.91,13,1,13,0.00
2013-8-7,65.3,58.0,53.9,59.4,55.5,53.5,100,92,76,30.05,29.95,17,1,17,0.00
2013-8-8,65.5,58.3,54.1,58.5,56.1,54.1,100,93,77,29.97,29.89,13,1,13,0.01
2013-8-9,66.0,59.0,55.0,57.6,55.8,53.7,100,89,72,29.93,29.85,14,1,14,0.00
2013-8-10,67.3,59.2,56.0,58.9,56.9,55.9,100,93,74,29.97,29.91,12,1,12,0.00
2013-8-11,65.5,58.5,54.4,58.4,56.3,54.4,100,93,76,29.95,29.87,11,1,11,0.00
2013-8-12,66.0,57.8,52.8,58.7,55.6,52.6,100,93,74,29.93,29.87,12,1,12,0.00
2013-8-13,71.3,58.7,52.2,58.7,55.0,52.0,100,89,63,29.91,29.83,9,0,9,0.00
2013-8-14,75.6,60.3,49.4,59.9,54.9,49.4,100,85,54,29.85,29.77,11,0,11,0.01
2013-8-15,83.6,62.3,50.5,60.2,55.2,50.5,100,80,37,29.85,29.79,9,1,9,0.00
2013-8-16,71.1,59.4,49.6,59.5,55.5,49.6,100,88,65,29.90,29.84,9,0,9,0.00
2013-8-17,72.0,60.1,54.5,61.3,56.9,54.2,100,90,69,29.91,29.77,12,0,12,0.00
2013-8-18,69.8,58.4,52.9,59.7,56.0,52.9,100,93,70,29.82,29.75,8,0,8,0.00
2013-8-19,68.9,59.7,53.1,60.1,57.0,53.1,100,92,71,29.87,29.80,9,0,9,0.00
2013-8-20,66.6,58.2,54.5,59.6,56.4,53.9,100,94,76,29.89,29.81,12,0,12,0.01
2013-8-21,69.3,59.8,53.3,58.5,55.8,53.0,100,88,68,29.89,29.81,11,0,11,0.00
2013-8-22,71.5,60.5,48.6,58.8,55.3,48.6,100,85,61,29.89,29.81,16,1,16,0.00
2013-8-23,68.3,59.1,51.3,59.0,56.0,51.3,100,90,70,29.85,29.74,11,1,11,0.00
2013-8-24,76.3,60.6,53.6,61.2,56.9,53.6,100,89,54,29.80,29.72,11,1,11,0.00
2013-8-25,72.7,61.1,52.8,62.8,58.4,52.8,100,92,68,29.88,29.80,14,1,14,0.01
2013-8-26,69.1,60.8,54.4,60.4,58.0,54.0,100,91,74,29.91,29.80,13,1,13,0.00
2013-8-27,71.5,59.6,50.4,61.1,56.2,50.4,100,90,66,29.82,29.76,10,0,10,0.00
2013-8-28,71.1,60.0,53.6,60.2,57.2,53.6,100,91,67,29.88,29.75,10,0,10,0.00
2013-8-29,71.8,61.1,55.0,63.4,58.1,55.0,100,91,69,29.93,29.85,12,1,12,0.01
2013-8-30,87.2,68.8,54.4,63.2,57.1,54.4,100,72,35,29.91,29.81,10,0,10,0.01
2013-8-31,84.7,70.7,57.6,62.7,57.1,51.7,93,65,35,29.88,29.82,7,0,7,0.00
2013-9-1,80.9,70.0,61.3,70.0,58.0,54.0,80,66,51,29.85,29.80,9,0,9,0.00
2013-9-2,80.1,66.7,59.5,66.5,60.2,55.8,96,81,59,29.85,29.77,9,0,9,0.00
2013-9-3,80.3,64.8,57.2,63.8,58.2,55.6,100,82,53,29.87,29.81,15,1,15,0.00
2013-9-4,77.2,62.5,54.8,61.0,57.4,54.8,100,85,54,29.90,29.83,10,1,10,0.00
2013-9-5,77.0,62.2,52.6,60.7,56.6,52.6,100,84,54,29.88,29.81,11,0,11,0.00
2013-9-6,79.8,63.3,53.6,59.8,55.6,52.5,100,79,44,29.85,29.75,9,1,9,0.00
2013-9-7,75.6,59.4,48.9,60.0,55.6,48.9,100,89,54,29.84,29.77,12,0,12,0.00
2013-9-8,66.0,57.1,52.6,58.5,55.7,52.6,100,95,75,29.81,29.73,10,0,10,0.00
2013-9-9,66.1,57.6,53.1,58.7,55.8,53.1,100,94,75,29.76,29.69,11,0,11,0.00
2013-9-10,68.8,58.9,53.5,59.9,56.5,53.3,100,92,72,29.85,29.71,5,0,9,0.00
2013-9-11,67.3,59.3,52.3,59.3,56.4,52.3,100,91,73,29.95,29.85,14,0,14,0.00
2013-9-12,69.1,58.6,48.0,61.2,56.1,48.0,100,92,75,29.89,29.81,13,0,13,0.00
2013-9-13,71.8,60.0,54.5,62.4,57.2,54.2,100,91,67,29.82,29.65,9,0,9,0.01
2013-9-14,69.1,57.9,51.1,59.7,55.0,51.1,100,91,70,29.71,29.62,9,0,9,0.00
2013-9-15,72.7,58.9,48.8,59.4,54.7,48.8,100,87,60,29.75,29.66,7,0,7,0.01
2013-9-16,73.5,58.7,49.4,60.1,55.0,49.4,100,89,62,29.79,29.72,10,0,10,0.00
2013-9-17,69.3,58.3,50.5,62.3,54.4,50.5,100,88,66,29.79,29.71,17,1,17,0.01
2013-9-18,76.8,58.3,46.5,57.8,52.3,46.5,100,83,44,29.78,29.72,12,1,12,0.00
2013-9-19,80.1,60.8,47.1,59.5,51.7,45.5,100,77,33,29.74,29.67,9,0,9,0.01
2013-9-20,68.3,58.4,50.8,58.1,55.8,50.8,100,92,68,29.83,29.71,7,1,10,0.00
2013-9-21,66.3,59.6,56.7,62.6,59.3,56.6,100,99,86,29.84,29.79,5,0,5,0.09
2013-9-22,68.3,57.6,47.6,59.9,53.9,47.4,100,89,63,29.89,29.81,10,0,10,0.01
2013-9-23,83.6,68.2,58.7,54.3,51.2,47.3,78,57,31,29.88,29.78,13,1,13,0.00
2013-9-24,81.6,63.2,52.9,57.9,54.5,51.1,97,75,40,29.86,29.78,12,1,12,0.00
2013-9-25,65.3,56.5,48.2,54.8,50.8,46.5,100,82,56,29.84,29.71,16,1,16,0.00
2013-9-26,66.6,53.4,42.1,52.2,47.2,41.0,99,81,49,29.89,29.73,12,1,12,0.00
2013-9-27,74.6,57.6,42.2,51.3,44.5,36.9,100,67,26,29.98,29.89,9,1,9,0.00
2013-9-28,80.7,65.7,51.0,50.1,40.4,35.6,85,43,22,29.98,29.91,10,1,10,0.00
2013-9-29,78.6,60.3,47.3,56.8,49.0,38.6,96,71,25,29.99,29.92,12,0,12,0.00
2013-9-30,76.3,58.9,46.7,60.4,54.3,46.7,100,87,48,29.96,29.85,12,0,12,0.00
2013-10-1,69.1,57.4,50.1,60.2,53.4,50.1,100,88,61,29.89,29.81,11,0,11,0.00
2013-10-2,68.6,54.7,46.0,56.4,51.2,46.0,100,89,58,29.90,29.83,8,0,8,0.00
2013-10-3,67.8,54.0,40.2,55.4,46.6,34.1,100,79,35,29.91,29.80,14,1,14,0.01
2013-10-4,81.1,65.2,52.9,44.3,35.4,29.8,52,34,18,29.96,29.83,14,1,14,0.00
2013-10-5,90.3,73.6,54.1,44.1,33.1,25.0,57,26,10,30.05,29.96,21,2,21,0.00
2013-10-6,90.1,69.3,52.9,41.1,32.9,26.9,55,29,11,30.01,29.91,11,1,11,0.00
2013-10-7,66.3,55.7,49.4,57.2,48.8,30.4,100,80,42,29.92,29.85,11,0,11,0.00
2013-10-8,61.3,54.8,51.3,53.6,51.3,49.1,98,88,73,29.87,29.73,10,0,10,0.00
2013-10-9,59.9,53.7,45.7,52.2,49.4,44.2,97,86,70,29.73,29.59,16,1,16,0.00
2013-10-10,62.0,52.2,42.1,53.4,48.7,41.9,100,89,72,29.96,29.73,7,0,7,0.00
2013-10-11,62.1,52.9,44.6,52.9,49.3,43.8,100,88,70,29.99,29.91,11,0,11,0.00
2013-10-12,62.7,52.9,47.6,55.7,51.0,47.4,100,94,73,29.94,29.85,9,0,9,0.00
2013-10-13,61.5,53.3,47.6,54.6,51.4,47.4,100,94,75,29.97,29.86,10,0,10,0.00
2013-10-14,75.6,59.3,44.3,57.3,46.8,41.3,100,68,35,29.98,29.87,10,0,10,0.01
2013-10-15,79.8,65.2,52.5,46.7,42.4,39.3,66,46,27,29.92,29.82,14,1,14,0.00
2013-10-16,82.8,67.1,51.9,43.0,38.3,32.8,54,37,19,29.98,29.88,9,0,9,0.00
2013-10-17,76.7,60.7,46.0,51.1,38.1,32.0,61,45,24,29.97,29.86,11,0,11,0.00
2013-10-18,76.1,59.6,48.5,54.5,44.6,34.8,99,61,31,29.93,29.88,9,0,9,0.00
2013-10-19,66.6,54.1,42.3,57.9,51.4,42.3,100,92,69,29.97,29.92,7,0,7,0.00
2013-10-20,68.3,54.8,48.6,56.7,52.6,48.6,100,93,64,29.96,29.83,8,0,8,0.00
2013-10-21,59.0,52.9,49.8,56.0,51.8,49.8,100,96,83,29.92,29.86,9,0,9,0.00
2013-10-22,58.9,51.9,48.0,55.1,50.9,48.0,100,97,83,29.94,29.86,8,0,8,0.00
2013-10-23,59.2,52.8,48.3,55.3,51.6,48.3,100,96,83,29.92,29.83,9,0,9,0.00
2013-10-24,58.9,52.7,46.4,53.2,51.2,46.4,100,95,80,30.02,29.89,11,0,11,0.00
2013-10-25,63.9,51.8,41.2,58.3,49.8,41.2,100,94,75,30.07,29.97,8,0,8,0.00
2013-10-26,66.0,52.1,40.3,57.5,50.2,40.3,100,94,72,30.03,29.94,7,0,7,0.00
2013-10-27,57.2,53.0,49.4,54.2,51.5,49.4,100,95,85,29.97,29.74,10,0,10,0.00
2013-10-28,59.5,53.4,49.6,55.3,52.7,49.1,100,98,83,29.83,29.70,8,0,8,0.07
2013-10-29,62.0,53.6,47.0,57.0,52.0,47.0,100,95,75,29.95,29.83,9,0,9,0.01
2013-10-30,65.2,51.9,41.5,55.3,47.7,41.3,100,87,60,30.04,29.95,10,0,10,0.01
2013-10-31,73.2,58.5,49.4,51.2,46.8,43.9,89,67,37,30.04,29.96,14,0,14,0.00
2013-11-1,77.6,61.2,50.2,50.5,44.3,39.1,76,56,30,30.02,29.90,5,0,5,0.00
2013-11-2,69.3,53.1,42.1,56.9,48.6,39.3,100,85,57,29.93,29.83,9,0,9,0.00
2013-11-3,66.0,55.4,48.9,55.7,51.3,42.8,100,87,57,29.87,29.76,12,0,12,0.00
2013-11-4,65.0,54.1,45.2,48.6,41.1,29.6,96,63,28,29.95,29.76,11,0,11,0.00
2013-11-5,69.8,53.5,40.9,52.7,37.5,31.6,79,56,27,30.12,29.95,9,0,9,0.00
2013-11-6,75.3,59.7,48.0,47.2,35.4,28.5,60,42,19,30.12,30.07,10,1,10,0.00
2013-11-7,75.8,54.8,43.2,53.3,39.9,28.0,99,62,21,30.07,29.97,10,0,10,0.00
2013-11-8,72.0,54.0,40.8,55.6,46.8,40.3,100,81,35,29.97,29.85,6,0,6,0.00
2013-11-9,64.3,51.1,39.3,57.5,49.3,39.3,100,94,77,29.98,29.89,7,0,7,0.01
2013-11-10,63.2,52.8,44.2,56.3,50.8,44.1,100,94,66,30.05,29.96,10,0,10,0.00
2013-11-11,68.8,52.9,40.5,56.2,49.8,40.3,100,91,52,30.08,29.98,7,0,7,0.01
2013-11-12,70.1,58.1,49.8,56.6,52.6,48.4,100,83,56,30.16,30.02,7,0,7,0.00
2013-11-13,80.5,59.1,47.6,54.7,50.0,39.9,98,75,25,30.10,29.97,10,0,10,0.00
2013-11-14,64.3,52.6,47.1,57.4,51.6,47.1,100,97,78,29.99,29.76,11,0,11,0.00
2013-11-15,59.8,49.0,39.6,54.3,47.2,39.6,100,94,74,29.76,29.66,11,0,11,0.01
2013-11-16,58.7,47.8,37.9,51.9,45.8,37.9,100,93,74,29.87,29.70,10,0,10,0.01
2013-11-17,58.3,47.5,38.8,53.8,46.1,38.8,100,95,80,30.02,29.87,10,0,10,0.00
2013-11-18,59.2,49.0,39.9,54.5,47.1,39.9,100,94,78,30.08,30.01,9,0,9,0.01
2013-11-19,58.9,50.6,40.3,54.1,49.3,40.3,100,95,82,30.05,29.92,7,0,7,0.00
2013-11-20,61.8,56.2,52.0,60.4,55.9,52.0,100,99,87,29.92,29.78,4,0,4,0.24
2013-11-21,58.0,53.2,48.9,56.2,52.4,48.8,100,97,85,29.84,29.77,8,0,8,0.00
2013-11-22,64.7,55.7,49.5,49.1,45.1,41.6,98,69,47,29.90,29.81,12,0,12,0.00
2013-11-23,62.7,51.7,43.5,51.3,46.1,40.6,98,82,61,30.03,29.88,6,0,8,0.00
2013-11-24,63.9,50.0,38.8,50.1,43.7,38.8,100,81,54,30.15,30.02,6,0,6,0.00
2013-11-25,71.8,54.8,44.3,48.4,44.2,40.0,88,69,35,30.20,30.13,9,0,9,0.00
2013-11-26,69.8,55.1,45.5,52.0,45.4,41.9,89,71,41,30.14,29.95,9,0,9,0.00
2013-11-27,67.1,52.6,43.1,50.6,46.1,40.8,97,81,42,29.95,29.78,10,0,10,0.00
2013-11-28,68.8,53.3,46.2,52.5,48.4,44.7,100,86,44,29.97,29.78,5,0,7,0.00
2013-11-29,68.1,54.5,45.5,52.3,47.9,42.8,100,81,41,30.14,29.97,9,0,9,0.00
2013-11-30,68.9,52.2,39.5,53.9,46.4,39.5,100,83,43,30.17,30.08,7,0,7,0.00
2013-12-1,76.0,59.6,47.7,47.0,42.0,37.4,81,55,27,30.19,30.07,7,0,7,0.00
2013-12-2,67.3,57.2,47.0,55.4,47.7,40.7,100,74,45,30.10,29.87,9,0,9,0.00
2013-12-3,58.7,49.7,43.5,54.4,46.9,31.6,100,91,62,29.88,29.77,15,0,15,0.01
2013-12-4,54.4,43.4,31.6,35.2,28.0,19.5,77,56,31,29.97,29.83,2,0,4,0.00
2013-12-5,52.9,41.3,31.3,32.5,25.0,18.7,72,53,28,30.08,29.96,2,0,5,0.00
2013-12-6,52.6,40.5,27.8,41.7,31.0,19.7,98,70,43,30.13,30.01,2,0,5,0.11
2013-12-7,53.9,47.5,39.1,51.4,40.0,28.9,100,77,53,30.14,29.88,3,1,5,0.13
2013-12-8,48.5,40.2,34.6,34.1,29.1,26.1,77,65,47,30.18,30.08,2,0,4,0.00
2013-12-9,55.0,43.3,36.5,28.7,26.0,20.9,70,52,29,30.26,30.15,7,2,12,0.00
2013-12-10,62.9,47.3,37.2,34.6,22.2,15.9,52,38,18,30.25,30.05,3,0,4,0.00
2013-12-11,61.8,46.6,35.6,47.6,35.5,17.9,100,69,25,30.11,30.03,2,0,4,0.00
2013-12-12,59.3,42.6,29.7,50.1,39.7,29.4,100,91,42,30.16,30.08,2,0,4,0.00
2013-12-13,59.2,43.5,30.9,49.7,37.6,30.7,100,82,58,30.20,30.12,3,0,5,0.01
2013-12-14,68.1,50.8,36.6,44.0,33.7,27.6,79,55,23,30.23,30.16,3,0,4,0.00
2013-12-15,75.1,58.7,41.8,37.5,31.2,24.3,68,38,21,30.20,30.05,3,0,6,0.00
2013-12-16,78.3,64.5,52.2,42.4,30.1,23.9,46,29,15,30.06,29.98,3,1,5,0.00
2013-12-17,77.5,58.2,47.0,51.2,37.6,26.7,92,51,18,30.04,29.93,1,0,2,0.00
2013-12-18,56.6,52.6,51.1,51.5,49.8,46.9,96,90,81,29.94,29.76,1,0,4,0.00
2013-12-19,58.5,51.7,43.5,49.7,42.3,36.0,91,71,44,29.81,29.64,3,1,7,0.00
2013-12-20,58.8,47.5,36.8,42.4,33.0,23.6,78,59,28,29.92,29.80,2,0,5,0.00
2013-12-21,59.6,44.3,33.4,48.0,37.7,29.7,90,78,57,30.00,29.88,2,0,6,0.00
2013-12-22,57.6,45.4,35.5,51.1,42.6,32.4,100,90,64,30.21,30.00,2,0,4,0.00
2013-12-23,63.2,45.4,35.0,53.3,43.4,35.0,100,94,58,30.28,30.20,4,0,5,0.00
2013-12-24,73.0,57.6,40.1,43.5,38.8,36.0,100,55,28,30.20,30.04,2,0,5,0.01
2013-12-25,76.8,59.7,48.5,40.6,35.5,27.8,59,42,23,30.14,30.07,2,0,4,0.00
2013-12-26,78.6,65.0,54.5,33.2,23.8,18.0,36,22,14,30.10,30.01,7,1,10,0.00
2013-12-27,76.3,57.6,42.8,45.2,32.9,18.0,73,42,14,30.09,29.99,4,0,6,0.00
2013-12-28,62.7,52.1,40.1,52.2,41.9,28.7,96,71,38,29.99,29.88,3,0,5,0.00
2013-12-29,75.4,52.9,39.9,39.7,34.0,27.1,79,53,17,30.09,29.95,3,0,5,0.00
2013-12-30,67.6,50.3,37.8,36.6,29.1,23.3,70,47,19,30.17,30.09,1,0,2,0.00
2013-12-31,60.9,47.0,37.0,50.5,37.5,21.9,100,71,42,30.16,30.04,2,0,5,0.00
2014-1-1,65.0,48.6,35.0,53.2,43.3,34.9,100,84,48,30.08,29.99,4,0,4,0.00
2014-1-2,69.1,51.5,39.8,45.6,38.6,31.6,90,64,30,30.03,29.94,3,0,6,0.00